Starlink 33719

operational
NORAD ID: 63578 Int'l Des: 2025-076 Owner: SPXS Country: US Constellation: starlink
LEOCIRCULAR

关于 Starlink 33719

正在加载描述...

实时位置

正在加载3D地球...

即将过境

高度历史

Altitude vs Time

uPlot chart will show altitude changes over time

两行轨道根数

1 63578U 25076K 25310.25579798 .00035102 00000-0 12775-2 0 9997
2 63578 43.0004 298.7165 0000620 253.8974 106.1810 15.27620068 32959
Epoch: Nov 6, 2025 • Age: 33 hours

当前状态

高度 483.4 km
速度 7.63 km/s
星下点 28.89°N, 50.58°E
发射日期 Apr 14, 2025
运行时间 0.5 years
类型 internet

技术详情

分类 Payload
质量 575.00 kg
干质量 530.00 kg
总质量 575.00 kg
长度 0.30 m
直径 4.10 m
跨度 29.00 m
形状 Box + pan
制造商 SPXS
平台类型 Starlink V2MO
阶段状态 In Orbit
所有者/国家 SPXS/US

大型星座

Loading constellations...